Simultaneous Nadir Overpasses (SNOs) Predictions

Prediction of SNOs between AQUA and METOP-B Satellite Orbit:

Table of predicted SNOs for the next 14.0 days since TLE Epoch: 12/6/2019
Index Date (AQUA) Time (AQUA) Lat,Lon (AQUA) SZA (AQUA ) Date (METOP-B) Time (METOP-B) Lat,Lon (METOP-B) SZA (METOP-B ) Distance(km) Time Diff (sec)
1 12/08/2019 12:18:54 -73.41, 170.32 83.96 12/08/2019 12:17:44 -73.34, 168.73 83.99 51.13 70
2 12/08/2019 13:08:29 73.78, -22.84 96.43 12/08/2019 13:08:15 73.80, -22.88 96.46 2.62 14
3 12/08/2019 13:57:56 -73.87, 144.61 83.47 12/08/2019 13:58:55 -73.87, 144.62 83.47 0.52 59
4 12/11/2019 07:53:14 -73.66,-123.78 83.43 12/11/2019 07:52:02 -73.61,-124.25 83.46 15.87 72
5 12/11/2019 08:42:45 73.82, 43.50 96.75 12/11/2019 08:42:38 73.81, 43.56 96.74 2.24 7
6 12/11/2019 09:32:11 -73.86,-148.94 83.21 12/11/2019 09:33:18 -73.89,-148.93 83.19 3.00 67
7 12/14/2019 03:27:32 -73.76, -57.56 83.11 12/14/2019 03:26:23 -73.77, -57.46 83.09 3.58 69
8 12/14/2019 04:17:01 73.82, 109.94 96.96 12/14/2019 04:17:02 73.83, 110.00 96.97 2.08 1
9 12/14/2019 05:06:28 -73.91, -82.62 82.95 12/14/2019 05:07:41 -73.95, -82.37 82.91 9.03 73
10 12/16/2019 23:01:48 -73.76, 8.87 82.95 12/16/2019 23:00:48 -73.74, 8.86 82.97 2.67 60
11 12/16/2019 23:51:17 73.82, 176.37 97.12 12/16/2019 23:51:26 73.84, 176.43 97.13 2.71 9
12 12/17/2019 00:40:50 -74.22, -16.90 82.47 12/17/2019 00:41:59 -74.26, -15.19 82.47 51.67 69
13 12/19/2019 18:36:03 -73.77, 75.28 82.85 12/19/2019 18:35:11 -73.75, 75.30 82.87 2.14 52
14 12/19/2019 19:25:32 73.83,-117.22 97.22 12/19/2019 19:25:49 73.85,-117.13 97.23 3.18 17




NCC Satellite Simultaneous Nadir Overpasses (SNOs) Prediction Service
